Погода в Игрекове

Россия / Томская область     57°44′43″N   83°47′47″E
темп.,
°C
ветер,
м/с
пор.,
м/с
влажн.,
%
обл.,
%
осадки,
мм/ч
давл.,
гПа
погр.,
м
8 августа, пн
пн801:00+14ссв2392100 1.1 101151
04:00+13ссв229395 0.0 101133
07:00+13ссв239357 0.0 101294
10:00+19ссв356816 0.0 1013521
13:00+22св455827 0.7 10121307
16:00+23в455314 0.9 10121560
19:00+20в35725 1.5 1013597
22:00+15св22893 0.4 101315
9 августа, вт
вт901:00+13св22935 0.4 101434
04:00+12ссв22955 0.0 101438
07:00+14ссв259342 0.0 1014123
10:00+16ссв2588100 0.0 1014181
13:00+22ссв245843 0.0 1014752
16:00+25св3345100 0.0 10131793
19:00+22ссв2561100 0.0 1013232
22:00+16св227878 0.0 101321
10 августа, ср
ср1001:00+14с1181100 0.0 101311
04:00+12ссз228474 0.0 101311
07:00+14ссз12836 0.0 101322
10:00+20сз12598 0.0 1013338
13:00+25ссз22485 0.0 10121133
16:00+26ссз224625 0.0 10111776
19:00+24ссз236596 0.0 1011141
22:00+20сз2273100 0.1 101117
11 августа, чт
чт1101:00+19сз2276100 0.1 101128
04:00+17с2384100 0.0 101064
07:00+16ссв3894100 0.6 1012261
10:00+16с3797100 0.6 1013478
13:00+18св567249 0.7 1014717
16:00+19ссв565749 0.0 1014963
19:00+16ссз3869100 0.0 1014289
22:00+14с39693 0.0 1015209
12 августа, пт
пт1201:00+11ссв3575100 0.0 101579
04:00+9с2378100 0.0 101546
07:00+10с237625 0.0 101680
10:00+16с245493 0.0 1017520
13:00+20ссв334138 0.0 10161643
16:00+21с334119 0.0 10151870
19:00+20ссв12527 0.0 1015853
22:00+13вюв22725 0.0 101514